Back to catalog

COSMOS 2376

GLONASS

AliveNavigationMEO
NORAD 26565·PAYLOAD·🇷🇺 Russia

Launched Oct 13, 2000 from Baikonur Cosmodrome

Loading…

Next Passes (next 24 hours)

TLE

FreshSource: Space-Track

Epoch: Sep 14, 2026, 08:47 UTC

1 26565U 00063B   26257.36653095 -.00000052  00000-0  00000-0 0  9990
2 26565  65.1472 310.8125 0004273  14.5427 339.3540  2.13102782201714

Track COSMOS 2376 in real time with AllMySat

Download on the App Store